Date,TemperatureHighF,TemperatureAvgF,TemperatureLowF,DewpointHighF,DewpointAvgF,DewpointLowF,HumidityHigh,HumidityAvg,HumidityLow,PressureMaxIn,PressureMinIn,WindSpeedMaxMPH,WindSpeedAvgMPH,GustSpeedMaxMPH,PrecipitationSumIn
2013-1-1,53.8,46.6,41.5,41.5,36.9,31.6,87,70,48,30.20,30.14,11,2,18,0.00
2013-1-2,57.6,47.5,40.8,39.6,36.5,33.6,87,67,41,30.17,30.07,7,2,11,0.00
2013-1-3,56.7,46.9,41.0,41.7,38.7,36.3,90,74,54,30.19,30.09,8,2,10,0.00
2013-1-4,58.8,48.6,41.4,40.6,37.9,35.8,89,68,44,30.22,30.11,9,2,11,0.00
2013-1-5,52.0,48.1,44.4,48.2,44.5,39.9,96,87,78,30.19,29.99,11,1,14,0.17
2013-1-6,52.0,47.2,44.1,47.1,43.4,41.7,96,87,70,30.12,29.97,11,2,13,0.25
2013-1-7,57.0,49.5,42.3,51.1,46.2,41.2,98,89,71,30.20,30.09,7,1,12,0.00
2013-1-8,61.5,51.8,45.1,48.6,45.9,43.3,94,81,59,30.17,30.06,7,1,8,0.00
2013-1-9,52.7,47.7,44.4,50.0,43.6,37.2,96,86,72,30.08,29.94,24,3,31,0.01
2013-1-10,52.2,45.5,42.1,38.8,35.4,32.7,78,68,51,30.13,30.01,16,4,19,0.00
2013-1-11,50.7,45.1,41.7,41.4,36.4,30.4,85,72,58,30.19,30.06,18,4,21,0.00
2013-1-12,50.5,44.1,38.5,37.9,32.2,22.8,86,65,35,30.18,30.08,6,2,11,0.00
2013-1-13,51.6,43.1,36.5,35.8,25.6,15.3,72,51,32,30.20,30.11,6,2,11,0.00
2013-1-14,51.3,44.3,37.2,35.4,21.8,14.0,76,43,25,30.33,30.16,16,2,25,0.00
2013-1-15,55.2,45.6,39.2,36.9,31.9,26.2,87,61,34,30.41,30.32,6,2,11,0.00
2013-1-16,58.5,47.1,39.0,38.3,35.4,33.4,87,65,41,30.36,30.18,7,2,10,0.00
2013-1-17,63.3,51.3,42.6,39.9,34.8,32.2,76,55,32,30.19,30.08,10,4,13,0.00
2013-1-18,64.9,53.6,44.4,40.6,35.7,31.5,82,53,29,30.15,30.06,10,4,13,0.00
2013-1-19,64.4,53.8,44.1,41.9,35.3,31.6,78,51,31,30.17,30.08,8,4,14,0.00
2013-1-20,64.9,54.1,45.5,39.0,34.5,30.2,74,49,28,30.15,30.06,8,4,12,0.00
2013-1-21,64.2,53.0,43.7,42.6,37.8,34.2,74,58,38,30.10,30.01,10,3,12,0.00
2013-1-22,62.4,53.5,45.9,43.0,40.1,37.2,84,61,43,30.04,29.93,9,3,12,0.00
2013-1-23,56.7,52.3,49.8,50.4,45.4,39.4,95,78,54,30.01,29.88,7,2,10,0.02
2013-1-24,57.7,53.1,49.8,51.3,49.7,48.0,95,88,78,30.12,29.99,6,2,10,0.02
2013-1-25,65.7,56.1,51.3,55.0,51.6,48.7,96,85,66,30.12,29.97,12,2,14,0.00
2013-1-26,55.0,50.7,47.8,49.8,45.3,41.4,98,82,68,30.02,29.94,21,7,25,0.01
2013-1-27,54.7,48.4,43.5,43.0,38.9,34.7,84,70,51,30.11,30.01,14,5,21,0.00
2013-1-28,57.4,49.3,45.0,44.2,40.9,36.5,88,73,55,30.23,30.10,15,5,20,0.00
2013-1-29,56.7,50.1,45.9,48.4,43.1,40.1,90,77,59,30.30,30.19,16,4,18,0.00
2013-1-30,63.7,53.4,46.9,49.3,44.4,39.9,90,72,44,30.27,30.19,10,2,13,0.00
2013-1-31,65.1,53.9,44.8,47.8,44.8,42.3,92,73,51,30.21,30.10,7,2,11,0.00
2013-2-1,67.3,54.6,47.3,47.7,45.6,44.2,96,74,47,30.16,30.04,12,3,13,0.00
2013-2-2,56.5,49.9,47.1,49.1,46.8,43.5,96,89,76,30.23,30.15,11,2,14,0.00
2013-2-3,55.9,49.8,46.2,47.3,44.2,41.2,95,81,65,30.19,30.08,13,4,17,0.00
2013-2-4,55.9,48.1,45.9,49.1,45.6,43.7,96,91,78,30.11,30.01,13,3,17,0.00
2013-2-5,54.0,49.1,46.8,48.2,44.9,41.0,94,86,76,30.09,30.01,15,5,21,0.00
2013-2-6,55.6,48.7,43.0,47.1,43.6,39.9,94,83,58,30.13,30.06,18,3,22,0.00
2013-2-7,53.4,47.8,43.2,47.7,43.4,38.7,95,85,65,30.11,29.93,13,2,16,0.21
2013-2-8,51.6,46.6,40.5,43.7,38.9,26.2,94,76,40,29.96,29.87,17,3,21,0.38
2013-2-9,58.8,49.6,42.6,41.4,33.6,21.6,83,55,25,30.03,29.93,11,2,14,0.00
2013-2-10,61.9,49.0,41.7,45.1,40.2,33.4,93,73,38,30.06,29.96,9,1,14,0.00
2013-2-11,64.0,52.4,46.6,47.3,36.1,25.2,93,58,25,30.17,30.00,12,3,15,0.00
2013-2-12,60.8,49.4,43.2,46.8,44.6,40.1,96,85,49,30.29,30.16,11,2,13,0.00
2013-2-13,56.5,48.9,44.1,48.4,45.8,43.0,97,90,70,30.28,30.16,13,3,17,0.00
2013-2-14,70.2,55.2,45.3,48.7,44.7,41.5,98,71,38,30.18,30.09,7,2,11,0.00
2013-2-15,73.6,61.1,52.9,45.9,41.8,38.7,76,51,29,30.19,30.12,9,3,11,0.00
2013-2-16,69.4,56.3,48.2,52.0,46.1,41.9,94,70,43,30.15,29.99,15,4,20,0.00
2013-2-17,57.6,50.5,45.7,46.9,44.9,42.3,94,82,57,29.99,29.92,14,4,20,0.00
2013-2-18,52.5,47.7,46.0,45.1,41.4,37.0,93,79,65,29.98,29.90,19,6,23,0.00
2013-2-19,47.1,44.5,40.8,44.1,38.9,33.3,93,81,64,29.90,29.69,19,6,29,0.39
2013-2-20,55.6,47.2,39.6,43.5,38.4,32.4,83,72,50,29.99,29.78,17,5,23,0.00
2013-2-21,57.6,49.1,43.2,44.4,39.0,33.1,90,69,40,30.10,29.99,15,4,18,0.00
2013-2-22,57.6,49.2,43.0,46.2,43.2,39.6,92,80,55,30.19,30.10,19,5,24,0.00
2013-2-23,55.6,50.0,45.7,47.8,40.5,30.4,96,71,48,30.19,30.10,20,6,22,0.01
2013-2-24,62.1,51.1,46.0,43.5,32.1,21.7,90,52,25,30.18,30.11,15,4,18,0.00
2013-2-25,59.0,49.6,44.1,47.5,44.0,42.1,94,82,64,30.20,30.11,17,4,19,0.00
2013-2-26,63.1,50.8,42.6,43.9,37.6,22.8,89,65,22,30.15,30.08,13,3,19,0.00
2013-2-27,62.8,51.4,44.6,48.9,44.8,39.9,95,79,55,30.30,30.14,15,4,20,0.00
2013-2-28,58.3,51.3,47.7,51.8,48.8,46.6,98,91,79,30.39,30.30,15,4,19,0.00
2013-3-1,72.3,55.6,46.6,54.7,48.9,45.5,99,81,46,30.37,30.17,11,2,15,0.00
2013-3-2,68.0,55.2,49.3,53.2,49.4,47.8,95,82,56,30.17,30.01,13,3,17,0.00
2013-3-3,55.8,49.8,46.8,50.5,47.1,44.2,96,91,80,30.04,29.99,19,6,21,0.00
2013-3-4,52.9,47.3,45.0,45.0,43.4,41.4,94,87,72,30.09,30.00,18,4,21,0.00
2013-3-5,54.9,48.9,43.3,46.2,42.1,39.6,91,78,64,30.00,29.78,25,8,37,0.09
2013-3-6,53.4,49.6,45.3,48.7,44.2,41.7,94,82,65,30.01,29.78,26,8,36,0.22
2013-3-7,55.2,47.6,44.1,45.3,42.6,38.3,94,83,56,29.93,29.80,11,3,16,0.05
2013-3-8,53.1,48.6,44.6,45.9,43.6,38.3,94,83,70,29.98,29.77,26,9,34,0.06
2013-3-9,59.7,50.6,43.0,47.3,43.9,39.9,94,79,53,30.24,29.99,15,4,20,0.00
2013-3-10,62.2,52.3,46.0,50.5,46.4,42.8,95,82,52,30.28,30.19,13,3,15,0.00
2013-3-11,69.4,52.5,45.0,50.2,46.6,43.2,96,83,43,30.19,30.06,12,3,16,0.00
2013-3-12,64.8,51.3,45.7,52.5,47.9,45.1,98,89,63,30.10,30.02,13,4,16,0.00
2013-3-13,73.8,53.6,44.4,54.3,48.7,43.9,98,86,49,30.09,30.01,14,2,15,0.00
2013-3-14,55.9,49.2,45.9,50.4,47.3,45.3,99,93,80,30.12,30.02,14,4,20,0.00
2013-3-15,66.4,52.1,46.9,52.5,48.2,45.7,97,88,59,30.08,29.98,19,4,21,0.00
2013-3-16,59.7,51.4,46.8,50.5,47.4,45.5,99,87,70,30.06,29.97,20,6,25,0.00
2013-3-17,61.2,51.7,46.6,47.3,44.5,42.6,91,77,54,30.09,29.99,17,4,27,0.00
2013-3-18,58.8,49.9,45.3,47.5,45.5,43.3,95,85,64,30.06,29.98,14,4,17,0.00
2013-3-19,61.5,51.5,47.5,49.3,45.8,42.6,93,82,50,30.08,29.99,13,2,18,0.08
2013-3-20,58.3,52.1,48.2,53.6,49.4,44.4,98,91,71,30.08,30.00,16,4,21,0.13
2013-3-21,58.1,49.9,42.3,47.3,43.4,39.7,97,79,56,30.08,29.96,17,5,21,0.01
2013-3-22,61.5,52.1,44.6,44.4,38.6,19.9,93,64,21,30.06,29.96,18,4,21,0.00
2013-3-23,65.7,52.8,45.9,45.5,39.6,25.7,91,64,22,30.07,29.99,13,3,21,0.00
2013-3-24,57.7,49.8,45.7,47.7,45.3,43.3,94,85,67,30.04,29.92,16,5,20,0.00
2013-3-25,53.6,48.2,45.5,45.0,43.8,43.2,93,85,71,29.98,29.86,20,5,24,0.00
2013-3-26,56.7,50.6,46.6,47.8,45.6,43.2,93,83,69,29.95,29.89,14,4,19,0.00
2013-3-27,59.4,53.0,48.6,53.2,49.9,45.9,96,89,77,29.95,29.89,13,3,17,0.00
2013-3-28,63.3,55.4,52.0,55.2,52.3,50.4,97,90,74,30.02,29.94,12,3,15,0.00
2013-3-29,72.9,55.0,48.9,54.5,50.5,48.0,98,87,49,30.02,29.96,21,3,21,0.00
2013-3-30,66.9,55.8,50.2,54.5,51.5,48.7,98,87,57,30.01,29.91,15,4,22,0.09
2013-3-31,63.1,57.1,53.2,54.9,52.3,50.5,94,84,67,30.00,29.92,22,5,26,0.08
2013-4-1,59.7,54.8,50.5,54.5,52.2,49.1,97,91,78,30.09,29.98,15,3,17,0.40
2013-4-2,56.7,51.5,48.2,51.8,49.5,47.3,98,93,82,30.14,30.04,14,4,18,0.00
2013-4-3,73.9,52.5,47.3,54.1,48.7,43.9,98,89,34,30.09,29.94,14,3,21,0.00
2013-4-4,61.9,54.7,48.7,56.3,52.9,47.8,98,94,80,30.06,29.93,21,6,27,0.36
2013-4-5,60.4,54.6,51.3,55.2,52.7,50.4,99,93,76,30.13,30.05,15,4,18,0.02
2013-4-6,58.5,53.5,51.4,54.9,52.1,49.3,99,95,87,30.13,30.08,14,4,19,0.02
2013-4-7,60.4,53.7,51.3,54.7,50.8,46.9,97,90,77,30.11,29.79,30,6,31,0.03
2013-4-8,60.6,52.4,46.6,47.1,42.1,36.0,87,69,46,29.96,29.75,21,8,34,0.04
2013-4-9,70.2,61.5,55.0,48.7,39.5,30.7,75,45,28,30.03,29.96,16,5,21,0.00
2013-4-10,69.4,58.5,49.6,52.7,48.5,40.1,95,71,44,30.12,29.99,22,6,28,0.00
2013-4-11,66.7,53.0,47.3,49.5,47.0,45.0,96,81,52,30.01,29.79,18,6,26,0.00
2013-4-12,58.8,50.4,46.2,49.5,46.3,44.2,96,86,70,29.87,29.78,19,5,23,0.00
2013-4-13,59.4,51.2,46.6,49.5,44.8,41.7,92,79,65,29.84,29.77,29,8,33,0.00
2013-4-14,58.5,49.9,44.2,45.5,41.9,39.0,94,75,54,29.88,29.82,26,6,32,0.00
2013-4-15,54.7,48.1,44.1,47.7,40.8,37.8,96,77,59,29.90,29.80,32,9,42,0.01
2013-4-16,60.3,52.0,42.8,43.5,38.1,28.9,80,61,34,30.09,29.89,17,5,24,0.00
2013-4-17,65.7,57.1,47.8,44.6,35.2,25.9,88,46,23,30.20,30.09,19,6,21,0.00
2013-4-18,69.6,54.8,46.8,47.8,44.2,33.3,91,71,26,30.20,30.14,12,3,18,0.00
2013-4-19,67.8,54.5,46.8,52.5,47.7,45.1,95,79,55,30.17,30.01,19,5,20,0.00
2013-4-20,71.2,54.3,47.7,51.1,47.2,40.6,94,79,35,30.05,29.94,14,4,20,0.00
2013-4-21,74.8,58.8,47.5,51.6,47.7,44.6,91,69,35,29.98,29.87,13,4,17,0.00
2013-4-22,84.6,63.9,50.4,50.9,46.9,37.0,90,58,19,29.90,29.79,17,3,18,0.00
2013-4-23,74.3,57.5,47.7,49.5,40.9,21.9,94,63,16,29.88,29.79,21,5,24,0.00
2013-4-24,55.2,50.5,46.6,50.0,47.6,45.0,96,90,80,29.89,29.78,18,6,24,0.00
2013-4-25,59.5,53.6,50.4,51.4,49.2,46.4,95,85,72,30.07,29.88,15,5,21,0.00
2013-4-26,57.4,51.6,48.4,49.3,47.2,45.9,92,85,74,30.18,30.06,19,5,24,0.00
2013-4-27,55.8,49.6,46.9,50.0,47.3,45.7,97,92,80,30.17,30.02,20,5,23,0.00
2013-4-28,64.6,54.9,48.0,52.0,48.9,46.4,94,81,61,30.03,29.83,16,5,19,0.00
2013-4-29,73.4,59.1,50.5,55.4,50.4,46.9,88,74,50,29.84,29.71,16,5,21,0.00
2013-4-30,69.3,55.7,47.8,50.4,46.0,23.7,93,73,18,29.81,29.73,17,4,20,0.00
2013-5-1,77.5,64.0,52.9,50.5,36.8,20.3,87,45,13,30.01,29.78,16,4,22,0.00
2013-5-2,88.3,68.8,54.0,52.3,39.5,26.1,79,40,11,30.08,30.01,16,4,18,0.00
2013-5-3,76.5,63.4,52.0,52.2,45.0,31.1,89,54,28,30.01,29.73,13,4,17,0.00
2013-5-4,68.5,57.7,52.0,54.7,50.5,44.2,94,78,54,29.73,29.51,21,5,29,0.00
2013-5-5,65.1,58.8,53.6,50.9,48.8,47.1,80,70,55,29.74,29.55,23,7,29,0.00
2013-5-6,66.7,59.8,55.8,52.9,51.0,48.4,87,73,56,29.90,29.74,14,4,19,0.00
2013-5-7,64.8,57.7,51.6,55.4,52.7,50.5,97,84,68,29.99,29.88,15,5,18,0.00
2013-5-8,57.9,52.9,50.7,51.6,49.9,48.0,97,90,77,30.08,29.97,20,6,23,0.00
2013-5-9,57.6,52.6,50.2,50.5,48.6,47.3,92,86,76,30.12,30.04,19,7,27,0.00
2013-5-10,55.4,51.3,49.3,51.6,49.5,47.8,97,94,86,30.13,30.05,20,6,26,0.00
2013-5-11,62.8,53.3,48.7,54.7,50.4,48.2,98,91,73,30.10,30.00,16,5,20,0.00
2013-5-12,61.3,54.7,51.1,54.9,52.4,50.2,98,92,77,30.10,29.98,15,5,21,0.00
2013-5-13,58.8,54.0,50.4,54.7,51.6,49.5,99,92,81,30.04,29.90,18,7,25,0.00
2013-5-14,59.9,54.1,50.4,51.3,49.3,46.4,95,84,72,29.94,29.87,25,9,31,0.00
2013-5-15,58.8,52.9,48.9,51.8,48.9,46.4,96,87,74,29.99,29.92,23,10,32,0.00
2013-5-16,59.2,53.8,51.3,55.4,52.0,50.4,99,94,80,29.98,29.91,19,6,25,0.01
2013-5-17,61.0,54.0,49.8,52.7,49.6,48.0,95,85,68,30.01,29.92,20,7,27,0.00
2013-5-18,64.8,55.5,48.7,52.2,49.6,46.8,95,81,59,30.08,29.99,25,9,27,0.00
2013-5-19,66.9,57.2,49.8,53.6,49.8,48.2,95,78,54,30.06,29.93,16,4,21,0.00
2013-5-20,73.9,58.7,50.4,55.8,50.5,47.7,91,76,46,29.94,29.87,16,5,26,0.00
2013-5-21,59.5,53.1,48.0,50.4,46.9,41.7,92,80,65,29.95,29.85,31,14,36,0.00
2013-5-22,57.7,51.7,45.9,44.2,40.2,32.4,83,66,43,29.96,29.85,21,8,33,0.00
2013-5-23,60.4,52.4,46.8,46.4,44.4,42.4,88,75,53,29.95,29.86,23,8,25,0.00
2013-5-24,60.8,51.6,45.9,48.2,45.5,43.9,94,80,57,29.95,29.88,26,6,30,0.00
2013-5-25,57.6,51.7,46.9,48.9,47.1,44.8,95,85,69,30.00,29.89,27,8,28,0.00
2013-5-26,59.7,53.9,50.4,53.6,51.5,48.9,98,92,79,30.07,29.99,16,6,23,0.02
2013-5-27,55.9,53.7,50.4,54.7,52.4,49.1,98,96,91,30.06,29.94,20,5,21,0.06
2013-5-28,60.6,55.2,52.3,58.1,53.5,51.3,99,94,81,29.94,29.86,23,6,25,0.08
2013-5-29,62.1,55.6,51.1,54.7,51.6,47.5,97,87,71,29.93,29.84,22,7,28,0.00
2013-5-30,64.6,55.2,48.2,50.4,48.2,46.6,95,79,59,29.94,29.87,21,5,27,0.00
2013-5-31,70.9,56.6,48.6,52.2,48.9,46.4,93,77,49,29.96,29.86,17,5,24,0.00
2013-6-1,67.5,56.7,49.1,52.5,49.2,46.8,92,77,55,29.88,29.73,23,5,23,0.00
2013-6-2,58.6,52.5,48.9,51.6,49.4,47.8,96,89,76,29.74,29.64,22,8,27,0.00
2013-6-3,64.0,55.1,49.5,53.4,50.6,47.8,95,86,67,29.80,29.66,23,5,28,0.00
2013-6-4,61.0,54.6,51.6,53.8,51.3,50.0,95,89,77,29.90,29.79,22,6,27,0.00
2013-6-5,57.7,53.5,51.3,51.8,50.1,48.9,95,88,79,29.94,29.87,22,7,26,0.00
2013-6-6,60.3,53.5,49.8,53.1,50.5,48.9,97,90,75,29.90,29.81,21,7,24,0.00
2013-6-7,65.8,56.1,50.5,56.7,52.3,49.6,98,88,69,29.84,29.67,17,6,20,0.00
2013-6-8,64.0,57.9,51.4,55.9,53.3,49.8,95,85,73,29.74,29.66,31,8,33,0.00
2013-6-9,61.2,56.0,54.5,56.7,54.1,53.4,97,94,84,29.82,29.73,22,8,28,0.00
2013-6-10,64.6,57.2,53.4,54.5,52.8,51.4,97,86,68,29.89,29.75,23,8,27,0.00
2013-6-11,64.2,56.4,52.3,55.0,51.9,49.5,95,85,71,29.93,29.84,17,4,23,0.00
2013-6-12,64.4,55.9,50.4,52.5,49.8,48.0,94,81,65,29.94,29.85,24,9,31,0.00
2013-6-13,66.9,56.2,48.4,52.2,49.3,46.2,93,79,57,30.04,29.93,18,5,23,0.00
2013-6-14,69.4,57.1,50.5,54.9,50.3,47.8,92,79,56,29.94,29.78,19,5,21,0.00
2013-6-15,54.7,51.1,48.7,50.9,49.1,47.5,96,93,86,29.94,29.78,22,9,27,0.00
2013-6-16,60.3,53.8,49.8,53.6,50.5,48.4,96,89,78,30.03,29.93,21,7,26,0.00
2013-6-17,63.7,55.5,50.0,56.5,52.7,49.3,98,91,77,30.04,29.97,19,8,29,0.00
2013-6-18,61.0,55.2,52.3,54.1,52.3,50.9,98,90,78,29.99,29.94,24,8,27,0.01
2013-6-19,65.1,56.9,51.4,52.9,50.2,47.5,95,80,61,30.00,29.94,22,9,31,0.00
2013-6-20,64.0,55.8,49.3,52.3,49.6,47.5,95,80,63,29.95,29.90,26,6,30,0.00
2013-6-21,63.1,55.7,49.6,53.2,50.6,48.2,96,84,66,29.93,29.86,18,6,26,0.00
2013-6-22,65.1,56.9,50.2,54.9,51.4,48.0,97,83,64,29.88,29.79,22,7,29,0.00
2013-6-23,60.1,55.6,52.3,59.7,55.1,51.6,99,98,97,29.82,29.75,14,6,21,0.02
2013-6-24,60.4,55.6,52.9,57.9,54.8,52.5,99,97,90,29.84,29.73,12,3,18,0.05
2013-6-25,69.4,63.1,60.3,65.1,61.0,56.8,98,93,84,29.92,29.81,18,5,22,0.09
2013-6-26,72.9,64.5,58.6,64.2,61.2,57.6,99,89,73,29.99,29.90,18,3,19,0.01
2013-6-27,73.4,62.8,56.5,61.9,58.0,55.6,99,85,64,30.03,29.95,17,4,21,0.01
2013-6-28,70.5,61.8,55.4,61.2,56.9,54.5,98,85,67,29.97,29.84,19,5,23,0.00
2013-6-29,72.7,63.0,56.3,58.6,56.0,53.8,92,79,60,29.86,29.74,21,5,23,0.00
2013-6-30,64.6,59.2,55.2,57.4,55.4,53.8,95,87,77,29.80,29.71,23,7,27,0.00
2013-7-1,76.3,59.5,53.8,60.4,55.1,52.9,98,87,58,29.80,29.74,18,5,21,0.00
2013-7-2,66.7,57.9,54.9,59.2,55.9,54.0,98,93,76,29.87,29.77,18,7,25,0.00
2013-7-3,71.1,60.7,55.2,60.3,57.1,54.9,99,89,67,29.86,29.71,18,5,23,0.00
2013-7-4,67.5,61.5,55.2,59.5,56.0,50.9,97,83,69,29.73,29.62,21,7,24,0.00
2013-7-5,58.8,55.0,52.5,53.2,51.8,50.9,95,89,81,29.73,29.65,22,9,31,0.00
2013-7-6,61.2,55.4,52.3,54.3,52.2,50.7,95,89,77,29.75,29.69,21,10,26,0.00
2013-7-7,63.5,56.8,53.2,55.4,53.2,51.3,95,88,75,29.80,29.73,19,6,26,0.00
2013-7-8,62.8,57.0,53.1,55.8,53.4,51.8,97,88,76,29.92,29.80,21,6,24,0.00
2013-7-9,63.9,56.4,51.3,57.9,53.6,50.7,99,91,73,29.97,29.89,19,4,21,0.00
2013-7-10,61.3,54.7,51.8,55.9,52.8,51.1,99,94,81,29.93,29.85,18,7,25,0.00
2013-7-11,56.8,53.2,50.2,53.1,51.4,49.6,98,94,85,29.89,29.83,20,8,32,0.00
2013-7-12,58.6,54.6,52.3,53.8,51.9,50.7,95,91,83,29.89,29.83,19,8,28,0.00
2013-7-13,62.8,55.7,51.4,55.6,52.5,50.5,97,89,75,29.91,29.84,24,8,25,0.00
2013-7-14,57.9,53.8,51.3,53.6,51.9,50.5,98,93,84,29.95,29.86,20,7,24,0.00
2013-7-15,58.8,53.7,49.6,54.7,51.9,49.3,99,94,83,29.87,29.78,21,8,29,0.00
2013-7-16,62.8,56.5,52.3,57.0,54.0,50.9,97,91,76,29.97,29.81,18,6,24,0.01
2013-7-17,61.7,56.8,53.4,56.1,54.3,52.2,97,91,81,30.04,29.96,16,5,21,0.00
2013-7-18,59.7,54.5,52.2,55.0,52.8,51.6,99,94,84,30.01,29.89,18,7,24,0.00
2013-7-19,59.2,54.0,51.8,55.0,52.4,50.9,98,94,84,29.90,29.78,20,9,26,0.00
2013-7-20,59.2,53.0,50.7,54.5,51.5,50.2,99,95,83,29.81,29.70,24,9,28,0.00
2013-7-21,57.9,53.4,51.1,54.5,52.2,50.5,99,96,86,29.83,29.72,19,9,27,0.00
2013-7-22,61.2,56.2,52.9,57.2,55.0,52.3,99,96,86,29.91,29.82,16,5,21,0.00
2013-7-23,64.9,58.1,54.3,59.0,55.8,54.0,99,92,78,29.96,29.87,14,4,17,0.00
2013-7-24,65.3,57.3,52.9,57.4,54.8,52.3,99,92,75,29.94,29.85,16,5,23,0.01
2013-7-25,60.4,54.6,51.6,56.1,53.2,51.1,99,95,84,29.97,29.87,18,6,24,0.00
2013-7-26,60.4,55.2,52.3,56.8,53.9,52.0,99,96,85,30.04,29.95,20,8,25,0.00
2013-7-27,60.4,55.1,52.9,56.3,53.9,52.5,99,96,85,29.98,29.81,21,7,26,0.00
2013-7-28,57.9,54.4,53.2,54.7,53.1,52.0,99,96,88,29.83,29.76,28,9,29,0.00
2013-7-29,61.9,56.4,53.2,55.4,53.5,52.2,96,90,79,29.95,29.79,23,9,28,0.00
2013-7-30,60.4,55.8,52.3,55.6,53.2,51.4,97,91,83,30.04,29.95,17,6,26,0.00
2013-7-31,60.6,55.3,51.8,55.2,53.0,50.9,98,92,81,30.04,29.94,20,9,26,0.00
2013-8-1,62.2,56.8,53.6,55.8,53.5,52.0,95,89,78,30.01,29.90,22,8,28,0.00
2013-8-2,60.3,54.6,51.1,54.9,52.5,50.4,98,93,80,29.93,29.85,18,7,25,0.00
2013-8-3,61.3,54.6,51.1,55.2,52.6,50.2,98,93,79,29.92,29.86,20,8,25,0.00
2013-8-4,58.5,54.3,51.8,53.8,52.5,51.3,99,94,83,29.96,29.90,20,6,26,0.00
2013-8-5,58.6,54.5,52.3,54.3,52.6,50.9,98,94,83,29.97,29.89,19,5,23,0.01
2013-8-6,60.6,56.1,52.2,55.9,53.8,51.4,98,92,82,29.98,29.91,21,6,25,0.01
2013-8-7,64.2,58.2,54.9,57.2,55.6,54.0,98,91,76,30.05,29.97,21,6,24,0.02
2013-8-8,64.9,58.0,54.0,58.1,55.5,52.5,98,92,74,29.97,29.88,17,5,25,0.04
2013-8-9,63.9,57.0,53.2,58.3,55.0,52.2,98,93,79,29.94,29.86,18,5,23,0.02
2013-8-10,63.5,58.0,55.2,57.7,55.8,54.0,98,93,80,29.99,29.93,17,5,24,0.00
2013-8-11,59.2,55.4,53.6,56.1,54.4,53.1,99,97,88,29.97,29.88,18,5,25,0.01
2013-8-12,63.7,56.6,53.8,57.7,54.8,52.9,99,94,80,29.94,29.88,19,7,23,0.00
2013-8-13,70.9,59.8,54.9,59.2,55.2,52.9,95,86,64,29.92,29.85,17,6,23,0.00
2013-8-14,65.8,58.4,53.2,60.1,56.0,52.3,98,92,78,29.93,29.84,20,7,24,0.00
2013-8-15,69.6,62.0,57.7,63.9,60.3,57.2,99,94,81,29.91,29.84,14,4,21,0.00
2013-8-16,63.1,58.9,56.5,60.1,57.8,55.9,99,96,88,29.94,29.87,20,5,23,0.01
2013-8-17,66.7,59.1,55.9,60.6,57.0,54.9,98,93,79,29.93,29.81,21,7,26,0.00
2013-8-18,71.4,61.5,55.4,61.3,57.4,54.7,99,87,69,29.82,29.71,15,5,19,0.00
2013-8-19,72.7,60.9,55.9,60.6,57.2,54.3,97,88,65,29.83,29.72,24,5,26,0.00
2013-8-20,66.9,60.1,55.9,59.2,56.9,55.0,99,90,74,29.83,29.76,24,6,28,0.00
2013-8-21,65.8,59.4,55.8,57.0,55.3,54.1,95,87,73,29.88,29.81,18,6,20,0.00
2013-8-22,66.0,60.0,56.8,56.8,55.1,54.1,92,84,70,29.91,29.83,16,5,28,0.00
2013-8-23,59.5,57.0,54.9,55.9,54.7,53.1,95,92,86,29.87,29.74,16,6,24,0.00
2013-8-24,64.9,58.8,55.0,59.2,56.5,54.1,98,92,79,29.84,29.77,18,6,23,0.00
2013-8-25,70.2,62.4,58.6,64.0,60.3,58.1,99,93,80,29.88,29.82,13,3,17,0.01
2013-8-26,65.8,60.3,57.6,58.8,57.3,55.6,97,90,75,29.95,29.84,18,4,23,0.02
2013-8-27,64.6,58.1,53.8,60.3,56.6,53.2,99,95,85,29.84,29.76,17,5,25,0.00
2013-8-28,70.0,60.9,56.1,63.5,59.5,55.8,100,95,80,29.88,29.79,15,4,22,0.01
2013-8-29,70.0,62.5,58.8,63.0,60.5,58.5,100,94,78,30.00,29.88,15,4,20,0.02
2013-8-30,71.6,62.5,57.6,63.3,59.6,56.8,100,91,74,29.98,29.85,17,5,22,0.01
2013-8-31,64.0,58.4,55.0,59.7,57.1,54.5,99,96,86,29.92,29.83,16,6,22,0.01
2013-9-1,66.6,60.1,55.0,61.2,58.1,54.5,99,93,79,29.89,29.83,17,6,24,0.00
2013-9-2,72.3,64.0,59.7,63.9,61.4,59.4,99,92,75,29.90,29.81,17,5,25,0.00
2013-9-3,69.1,62.2,57.7,62.2,59.5,57.4,99,91,74,29.94,29.86,23,6,24,0.00
2013-9-4,69.6,62.5,58.3,62.4,59.7,57.6,98,91,74,29.97,29.87,24,7,27,0.00
2013-9-5,69.6,61.8,57.4,60.6,58.3,55.4,98,89,71,29.96,29.88,18,7,28,0.00
2013-9-6,83.7,68.4,55.8,61.0,54.6,47.7,95,66,36,29.92,29.75,20,4,22,0.00
2013-9-7,82.2,68.5,55.4,60.8,55.8,48.2,98,67,43,29.80,29.75,13,3,19,0.00
2013-9-8,65.7,58.0,53.4,60.1,55.9,52.9,99,93,79,29.81,29.71,15,5,18,0.00
2013-9-9,68.4,58.4,53.1,59.7,56.2,52.7,99,93,72,29.75,29.64,16,5,21,0.01
2013-9-10,68.4,61.4,55.8,60.6,58.3,55.4,99,90,74,29.83,29.67,25,9,31,0.01
2013-9-11,69.4,63.4,61.0,59.7,58.4,57.4,92,84,70,29.93,29.82,17,7,23,0.00
2013-9-12,67.6,60.9,57.0,61.0,58.9,56.5,98,94,78,29.91,29.83,16,4,24,0.02
2013-9-13,60.1,56.5,54.3,57.4,55.5,54.0,99,97,90,29.84,29.70,25,8,31,0.02
2013-9-14,63.9,57.2,54.0,58.5,55.6,53.6,99,95,82,29.76,29.68,22,7,27,0.02
2013-9-15,68.7,61.1,55.6,59.5,56.7,54.0,98,86,68,29.80,29.70,21,7,23,0.00
2013-9-16,66.7,59.9,56.3,59.4,57.2,55.4,99,91,71,29.83,29.72,20,6,27,0.01
2013-9-17,65.3,59.5,55.2,57.0,55.3,52.0,97,86,69,29.82,29.76,27,9,32,0.00
2013-9-18,74.5,60.4,53.4,58.5,53.4,50.9,95,79,48,29.85,29.76,18,4,21,0.00
2013-9-19,74.7,60.9,52.5,58.5,53.2,48.6,93,77,54,29.79,29.69,16,4,18,0.00
2013-9-20,68.7,60.0,53.1,62.8,57.7,51.6,99,92,79,29.80,29.70,19,6,21,0.00
2013-9-21,64.2,60.5,56.1,60.3,58.2,55.0,98,92,84,29.83,29.74,19,6,23,0.53
2013-9-22,65.8,59.3,53.4,57.6,55.3,52.9,99,87,67,29.94,29.83,22,4,26,0.01
2013-9-23,74.8,62.9,56.5,61.5,57.0,52.3,97,82,55,29.95,29.87,19,4,22,0.00
2013-9-24,66.9,59.7,55.8,58.8,55.3,51.8,94,86,73,29.94,29.85,21,6,29,0.00
2013-9-25,63.5,57.7,53.6,53.2,50.5,47.3,92,77,63,29.88,29.75,20,8,31,0.00
2013-9-26,68.2,58.7,51.6,49.6,46.1,37.2,83,64,38,29.91,29.77,20,4,22,0.00
2013-9-27,75.6,62.7,53.1,50.5,43.5,35.2,88,52,23,30.02,29.91,16,3,19,0.00
2013-9-28,74.8,60.7,52.2,56.1,51.6,41.0,96,74,30,30.01,29.94,17,3,24,0.00
2013-9-29,70.2,62.0,54.7,62.2,58.7,54.1,98,89,70,30.04,29.98,14,3,18,0.00
2013-9-30,66.7,61.4,55.4,63.3,59.4,48.2,99,93,74,30.00,29.91,17,5,19,0.01
2013-10-1,68.2,58.4,52.9,53.2,51.7,50.0,95,79,56,29.95,29.85,12,4,18,0.00
2013-10-2,65.8,57.1,52.0,53.1,49.9,46.4,94,78,59,29.95,29.86,19,5,22,0.00
2013-10-3,68.2,60.3,50.5,48.6,42.3,31.5,83,55,26,30.01,29.89,17,4,24,0.00
2013-10-4,79.3,69.8,61.9,39.2,31.6,25.2,34,25,14,30.01,29.89,14,4,22,0.00
2013-10-5,84.6,71.2,62.2,45.0,33.1,23.2,50,27,11,30.11,30.01,8,2,12,0.00
2013-10-6,84.0,69.3,58.8,45.5,35.6,29.1,56,31,15,30.04,29.91,10,2,13,0.00
2013-10-7,74.7,62.6,53.2,50.7,43.0,30.9,88,52,29,29.92,29.81,16,3,19,0.00
2013-10-8,65.8,55.7,50.5,52.9,49.7,47.7,92,81,57,29.84,29.65,16,4,21,0.00
2013-10-9,64.2,55.5,49.3,50.0,47.9,44.4,93,77,49,29.70,29.56,14,3,16,0.00
2013-10-10,62.2,54.4,50.4,52.2,49.5,47.1,95,84,68,29.94,29.69,18,4,20,0.00
2013-10-11,58.5,52.0,48.9,50.9,48.8,47.3,96,89,75,30.02,29.93,13,4,19,0.00
2013-10-12,56.1,51.9,48.2,50.9,48.9,46.9,97,90,79,29.95,29.85,18,6,23,0.00
2013-10-13,70.7,56.8,49.6,54.1,49.1,41.0,97,79,36,29.99,29.85,17,2,18,0.00
2013-10-14,76.6,62.2,51.3,53.4,45.7,39.4,89,59,27,30.05,29.93,10,2,12,0.00
2013-10-15,79.3,65.0,55.4,52.3,40.9,32.0,82,45,18,29.97,29.88,11,2,14,0.00
2013-10-16,81.9,67.1,57.9,52.2,40.3,30.9,80,41,18,30.01,29.91,11,2,13,0.00
2013-10-17,79.5,64.3,52.2,50.7,43.0,31.1,92,50,22,30.01,29.90,10,2,15,0.00
2013-10-18,61.5,52.5,48.0,52.3,49.2,46.9,98,89,68,29.99,29.92,14,3,17,0.00
2013-10-19,75.6,54.8,46.8,54.3,49.4,46.2,98,84,42,30.01,29.94,11,2,17,0.01
2013-10-20,58.8,50.7,46.8,52.3,48.6,46.2,99,93,77,29.96,29.86,15,4,20,0.01
2013-10-21,57.0,50.2,48.0,51.3,48.8,47.5,99,95,80,29.95,29.86,17,4,18,0.00
2013-10-22,62.2,50.8,48.0,55.2,49.4,47.5,99,95,76,29.96,29.87,13,3,19,0.00
2013-10-23,58.5,50.1,47.1,52.7,48.8,46.9,99,96,79,29.92,29.85,15,4,21,0.00
2013-10-24,56.8,51.6,48.9,50.4,49.0,47.8,97,91,78,30.04,29.91,11,3,15,0.00
2013-10-25,63.3,54.9,49.3,53.2,50.3,47.5,95,85,66,30.10,30.01,16,2,16,0.00
2013-10-26,69.3,54.6,48.9,56.1,50.8,47.8,98,88,58,30.08,29.96,12,3,21,0.01
2013-10-27,54.9,51.6,48.6,51.4,49.5,48.0,99,93,82,29.97,29.62,22,7,31,0.00
2013-10-28,58.5,53.2,49.5,51.1,49.4,46.8,93,87,73,29.78,29.60,26,7,30,0.00
2013-10-29,59.5,54.0,50.2,51.6,49.1,45.3,95,84,63,29.99,29.78,16,3,18,0.00
2013-10-30,64.6,54.1,47.8,52.9,48.9,45.5,97,84,60,30.08,29.98,10,2,15,0.01
2013-10-31,71.4,56.9,48.7,52.5,48.7,43.0,95,76,43,30.11,30.00,12,2,14,0.00
2013-11-1,73.0,60.4,51.8,52.0,48.3,43.9,92,67,38,30.06,29.94,8,2,11,0.00
2013-11-2,59.7,53.1,48.4,54.1,49.1,45.0,98,87,60,29.96,29.84,20,4,25,0.00
2013-11-3,61.2,53.2,48.0,48.0,43.3,37.6,88,70,43,29.99,29.86,15,2,17,0.00
2013-11-4,63.9,56.2,46.0,46.0,40.5,32.7,88,58,33,30.00,29.85,12,3,16,0.00
2013-11-5,73.8,60.1,51.3,49.5,39.6,32.4,87,50,25,30.14,29.99,9,1,13,0.00
2013-11-6,70.9,61.8,52.2,45.7,41.0,37.0,78,48,30,30.18,30.07,6,2,10,0.00
2013-11-7,70.3,59.3,52.7,52.5,46.3,39.9,95,64,38,30.10,30.01,13,2,17,0.00
2013-11-8,70.2,57.4,49.8,55.4,50.6,46.8,99,80,57,30.01,29.90,12,4,17,0.01
2013-11-9,70.0,55.2,48.7,53.1,49.5,46.8,96,83,49,29.97,29.90,13,3,17,0.01
2013-11-10,61.5,54.0,50.0,52.9,50.0,48.0,94,87,69,30.05,29.96,17,3,19,0.02
2013-11-11,64.6,55.9,51.4,53.2,50.3,46.2,92,82,65,30.10,30.00,11,2,14,0.00
2013-11-12,69.8,59.6,54.1,53.2,50.9,47.5,95,74,50,30.19,30.08,9,2,11,0.00
2013-11-13,68.7,55.9,51.3,57.2,52.9,50.7,98,90,62,30.18,30.04,14,3,17,0.01
2013-11-14,55.2,52.0,50.5,54.3,50.5,47.7,99,95,86,30.05,29.82,24,7,28,0.01
2013-11-15,61.2,52.9,48.4,49.6,47.4,44.2,93,82,58,29.83,29.67,21,5,29,0.00
2013-11-16,60.3,52.1,46.2,51.3,47.8,42.8,96,86,61,29.86,29.70,17,5,24,0.00
2013-11-17,57.7,51.6,48.6,49.6,47.7,45.5,97,87,70,30.03,29.86,14,4,16,0.00
2013-11-18,57.2,51.4,47.1,49.6,47.7,45.7,96,87,69,30.09,30.02,13,2,16,0.00
2013-11-19,58.3,55.1,52.0,55.9,52.1,47.8,97,90,81,30.03,29.87,13,2,16,0.28
2013-11-20,59.0,54.7,50.2,57.0,53.8,48.2,98,97,88,29.87,29.77,16,4,18,0.85
2013-11-21,61.2,54.9,49.6,49.6,37.3,24.6,97,58,26,29.90,29.83,13,4,21,0.02
2013-11-22,71.4,60.8,54.3,43.0,22.1,13.1,55,24,12,29.94,29.84,17,3,19,0.00
2013-11-23,65.8,57.0,50.7,50.5,35.4,20.8,91,49,22,30.03,29.87,13,4,23,0.00
2013-11-24,63.3,53.4,46.9,49.5,45.7,41.7,94,77,47,30.18,30.02,9,1,10,0.00
2013-11-25,64.9,54.2,46.2,47.1,44.8,42.1,93,72,45,30.25,30.17,7,2,10,0.00
2013-11-26,63.1,54.3,48.7,47.3,43.9,41.2,84,69,46,30.19,29.96,10,3,11,0.00
2013-11-27,65.7,55.7,49.1,48.9,45.9,44.1,86,70,50,29.96,29.77,6,2,10,0.00
2013-11-28,68.2,57.1,51.6,48.2,45.4,41.7,87,66,41,30.00,29.79,7,2,12,0.00
2013-11-29,68.2,55.8,49.5,53.4,47.5,41.7,94,75,40,30.14,30.00,12,2,13,0.00
2013-11-30,62.4,52.1,47.1,54.0,49.0,46.4,98,89,70,30.20,30.12,11,1,12,0.01
2013-12-1,70.2,56.1,47.8,53.1,48.2,42.1,96,78,38,30.27,30.15,8,1,9,0.00
2013-12-2,58.8,52.3,48.0,53.4,50.5,47.1,99,94,79,30.16,29.90,20,6,24,0.01
2013-12-3,54.0,49.6,45.9,53.4,38.8,26.2,98,68,46,29.89,29.78,29,6,29,0.02
2013-12-4,52.3,45.4,40.8,33.6,27.1,22.1,69,49,34,30.01,29.88,7,2,13,0.00
2013-12-5,51.1,43.1,35.8,34.7,26.7,15.6,76,54,25,30.09,30.01,7,2,13,0.00
2013-12-6,50.0,45.4,38.5,48.0,37.7,29.1,95,75,46,30.12,29.85,27,5,35,0.42
2013-12-7,48.7,43.3,38.5,45.5,31.7,25.7,94,64,42,30.18,29.86,18,5,31,0.47
2013-12-8,45.7,39.7,35.4,31.6,24.9,18.7,80,57,35,30.25,30.15,12,3,16,0.00
2013-12-9,51.4,42.2,34.9,31.8,20.7,12.6,68,44,21,30.34,30.24,16,3,21,0.00
2013-12-10,53.4,44.7,37.9,32.7,30.4,26.2,77,58,36,30.33,30.13,11,2,13,0.00
2013-12-11,57.9,47.5,39.0,36.3,32.2,27.0,85,57,31,30.16,30.10,8,2,14,0.00
2013-12-12,59.9,48.7,41.5,46.6,38.5,34.2,94,70,42,30.19,30.10,12,2,15,0.00
2013-12-13,59.5,49.7,43.7,47.1,43.7,36.3,96,82,44,30.26,30.15,5,1,10,0.01
2013-12-14,63.0,51.2,42.3,45.5,39.2,34.5,96,67,36,30.31,30.23,10,2,15,0.00
2013-12-15,61.2,51.8,43.7,42.3,38.9,37.0,86,63,43,30.28,30.16,8,3,11,0.00
2013-12-16,67.8,56.6,47.7,39.4,37.2,34.3,73,50,30,30.16,30.04,11,3,12,0.00
2013-12-17,63.9,55.9,49.3,44.1,40.4,36.3,73,56,46,30.10,29.95,11,3,12,0.00
2013-12-18,56.1,50.1,46.4,48.2,44.3,37.6,92,81,51,29.95,29.70,22,5,29,0.00
2013-12-19,58.5,51.0,45.9,45.5,36.5,18.5,90,60,27,29.87,29.66,20,4,29,0.00
2013-12-20,57.9,50.5,44.2,45.7,31.0,12.7,90,51,24,29.94,29.85,11,2,14,0.00
2013-12-21,58.5,51.0,44.8,50.5,47.4,43.7,96,88,71,30.01,29.90,10,2,16,0.00
2013-12-22,66.0,55.0,46.8,47.7,43.7,38.5,96,68,37,30.21,30.01,6,1,8,0.01
2013-12-23,63.1,53.9,45.9,46.4,41.7,39.6,84,65,45,30.31,30.20,6,1,9,0.00
2013-12-24,68.7,56.5,47.1,47.3,42.4,38.1,85,60,39,30.27,30.13,5,1,9,0.00
2013-12-25,66.7,56.5,48.6,44.2,41.0,38.1,76,57,41,30.20,30.11,12,2,17,0.00
2013-12-26,67.5,56.4,47.8,45.0,40.1,36.0,83,56,36,30.18,30.09,10,4,11,0.00
2013-12-27,59.7,53.5,46.2,44.4,39.9,36.9,84,60,49,30.15,30.05,9,3,12,0.00
2013-12-28,62.4,52.6,42.6,42.4,38.0,33.1,80,59,39,30.07,29.96,11,1,13,0.00
2013-12-29,67.5,56.8,51.3,35.4,28.9,18.9,52,36,16,30.09,30.01,8,3,13,0.00
2013-12-30,63.3,52.5,46.8,48.4,40.8,33.8,94,67,39,30.18,30.09,9,2,12,0.00
2013-12-31,61.9,49.8,43.9,47.8,43.6,36.1,96,81,40,30.20,30.09,6,1,10,0.01
2014-1-1,63.9,52.2,43.9,48.0,43.0,36.3,93,72,47,30.14,30.05,6,1,9,0.00
2014-1-2,65.8,55.6,47.1,42.6,38.0,34.5,74,53,33,30.10,29.97,9,2,12,0.00